NSZ4363 ESSA-LICJ

Flight info

Callsign NSZ4363
Flight time N/A
Altitude 34000
Route NOSLI N850 ABAMA DCT NEFYN/N0439F350 DCT RUMAR DCT DIMEX DCT MIKOV/N0438F360 DCT INSAX DCT TISKO/N0437F350 DCT PETOV DCT NIVES/N0442F360 DCT VAPUP/N0446F370 DCT AMANO/N0342F190 M742 ROSAS
Aircraft B738/M-SDE2E3GHIJ1LRWXY/LB1

Departure

Time 2026-05-01 12:55
Airport Stockholm-Arlanda Airport (ESSA)

Arrival

Time N/A
Airport Falcone–Borsellino Airport (LICJ)
Time Latitude Longitude Altitude Speed Heading
2026-05-01 12:28 59.65286 17.92946 137 ft 0 kts 68°
2026-05-01 12:47 59.65281 17.92920 136 ft 4 kts 65°
2026-05-01 12:48 59.65273 17.92888 136 ft 4 kts 58°
2026-05-01 12:48 59.65265 17.92866 136 ft 0 kts 51°
2026-05-01 12:49 59.65263 17.92860 136 ft 4 kts 47°
2026-05-01 12:49 59.65243 17.92830 136 ft 4 kts
2026-05-01 12:49 59.65229 17.92833 136 ft 1 kts 329°
2026-05-01 12:49 59.65226 17.92836 136 ft 0 kts 329°
2026-05-01 12:51 59.65249 17.92810 136 ft 4 kts 329°
2026-05-01 12:52 59.65282 17.92774 136 ft 7 kts 333°
2026-05-01 12:52 59.65391 17.92663 137 ft 11 kts 332°
2026-05-01 12:52 59.65462 17.92594 137 ft 12 kts 335°
2026-05-01 12:53 59.65642 17.92474 137 ft 15 kts 345°
2026-05-01 12:53 59.65749 17.92425 137 ft 16 kts 357°
2026-05-01 12:53 59.65863 17.92457 137 ft 16 kts 358°
2026-05-01 12:54 59.65916 17.92332 138 ft 11 kts 277°
2026-05-01 12:54 59.65886 17.92104 144 ft 10 kts 190°
2026-05-01 12:54 59.65776 17.92064 142 ft 36 kts 190°
2026-05-01 12:55 59.64376 17.91549 143 ft 162 kts 190°
2026-05-01 12:55 59.63157 17.91182 577 ft 180 kts 195°
2026-05-01 12:55 59.61978 17.90694 1629 ft 170 kts 199°
2026-05-01 12:56 59.60921 17.89260 1843 ft 205 kts 238°
2026-05-01 12:56 59.60232 17.86767 2481 ft 206 kts 242°
2026-05-01 12:56 59.59471 17.84249 3024 ft 219 kts 241°
2026-05-01 12:56 59.58670 17.81674 3817 ft 220 kts 244°
2026-05-01 12:57 59.57935 17.78872 4204 ft 244 kts 247°
2026-05-01 12:57 59.55969 17.73190 5714 ft 266 kts 217°
2026-05-01 12:57 59.54324 17.71453 6553 ft 271 kts 212°
2026-05-01 12:58 59.52619 17.69779 7294 ft 275 kts 212°
2026-05-01 12:58 59.50896 17.68107 8114 ft 277 kts 212°
2026-05-01 12:58 59.49159 17.66418 8900 ft 280 kts 212°
2026-05-01 12:59 59.45623 17.62971 10371 ft 291 kts 212°
2026-05-01 12:59 59.43740 17.61119 10568 ft 315 kts 212°
2026-05-01 12:59 59.39601 17.57057 11368 ft 343 kts 212°
2026-05-01 13:00 59.35291 17.52863 12800 ft 349 kts 212°
2026-05-01 13:00 59.33102 17.50734 13517 ft 353 kts 212°
2026-05-01 13:01 59.28658 17.46413 14782 ft 360 kts 212°
2026-05-01 13:01 59.26401 17.44222 15413 ft 364 kts 212°
2026-05-01 13:01 59.21830 17.39793 16693 ft 370 kts 212°
2026-05-01 13:02 59.19515 17.37555 17323 ft 373 kts 212°
2026-05-01 13:07 58.72887 16.70820 26938 ft 425 kts 223°
2026-05-01 13:07 58.70596 16.67212 27315 ft 427 kts 223°
2026-05-01 13:07 58.68287 16.63579 27675 ft 429 kts 223°
2026-05-01 13:08 58.65975 16.59948 28012 ft 431 kts 223°
2026-05-01 13:08 58.63644 16.56293 28336 ft 433 kts 223°
2026-05-01 13:08 58.61301 16.52629 28644 ft 435 kts 223°
2026-05-01 13:08 58.58947 16.48952 28966 ft 437 kts 223°
2026-05-01 13:09 58.56581 16.45268 29383 ft 437 kts 223°
2026-05-01 13:09 58.54220 16.41595 29699 ft 438 kts 223°
2026-05-01 13:09 58.51840 16.37897 29882 ft 443 kts 223°
2026-05-01 13:09 58.49434 16.34165 30139 ft 445 kts 222°
2026-05-01 13:10 58.47056 16.30483 30420 ft 446 kts 222°
2026-05-01 13:10 58.44641 16.26751 30697 ft 447 kts 222°
2026-05-01 13:10 58.42225 16.23025 31034 ft 446 kts 222°
2026-05-01 13:10 58.39816 16.19318 31381 ft 444 kts 222°
2026-05-01 13:11 58.37415 16.15627 31726 ft 443 kts 222°
2026-05-01 13:11 58.35016 16.11947 32013 ft 443 kts 222°
2026-05-01 13:11 58.32614 16.08267 32316 ft 443 kts 222°
2026-05-01 13:11 58.30215 16.04598 32611 ft 442 kts 222°
2026-05-01 13:12 58.27812 16.00930 32841 ft 443 kts 222°
2026-05-01 13:12 58.25398 15.97251 33100 ft 444 kts 221°
2026-05-01 13:12 58.22989 15.93587 33419 ft 442 kts 221°
2026-05-01 13:12 58.20589 15.89944 33758 ft 441 kts 221°
2026-05-01 13:13 58.18197 15.86319 34032 ft 441 kts 221°
2026-05-01 13:13 58.15807 15.82702 34285 ft 441 kts 221°
2026-05-01 13:13 58.13408 15.79079 34515 ft 440 kts 221°
2026-05-01 13:13 58.11009 15.75462 34736 ft 440 kts 221°
2026-05-01 13:14 58.08618 15.71863 34962 ft 440 kts 221°
2026-05-01 13:14 58.06220 15.68258 35171 ft 440 kts 221°
2026-05-01 13:14 58.03820 15.64657 35286 ft 442 kts 221°
2026-05-01 13:14 58.01417 15.61134 35433 ft 445 kts 217°
2026-05-01 13:15 57.98695 15.58187 35654 ft 448 kts 207°
2026-05-01 13:15 57.95809 15.56160 35890 ft 450 kts 198°
2026-05-01 13:15 57.92731 15.54974 36056 ft 453 kts 191°
2026-05-01 13:15 57.89603 15.54098 36210 ft 454 kts 191°
2026-05-01 13:16 57.86436 15.53247 36390 ft 454 kts 191°
2026-05-01 13:16 57.83345 15.52399 36596 ft 454 kts 191°
2026-05-01 13:16 57.80232 15.51517 36799 ft 453 kts 191°
2026-05-01 13:17 57.70874 15.48765 37241 ft 455 kts 192°
2026-05-01 13:17 57.67736 15.47837 37230 ft 457 kts 192°
2026-05-01 13:18 57.58341 15.45382 37234 ft 454 kts 183°
2026-05-01 13:18 57.52048 15.46514 37241 ft 454 kts 173°
2026-05-01 13:19 57.45812 15.48256 37244 ft 452 kts 173°
2026-05-01 13:20 57.36482 15.50763 37247 ft 452 kts 174°
2026-05-01 13:20 57.30244 15.52373 37252 ft 453 kts 174°
2026-05-01 13:21 57.20843 15.54769 37250 ft 456 kts 173°
2026-05-01 13:21 57.14541 15.56371 37257 ft 458 kts 173°
2026-05-01 13:22 57.08219 15.57974 37249 ft 460 kts 173°
2026-05-01 13:22 57.01870 15.59578 37259 ft 461 kts 173°
2026-05-01 13:23 56.95512 15.61179 37256 ft 462 kts 173°
2026-05-01 13:23 56.89143 15.62778 37259 ft 462 kts 173°
2026-05-01 13:24 56.82781 15.64369 37258 ft 461 kts 173°
2026-05-01 13:25 56.73259 15.66740 37257 ft 459 kts 173°
2026-05-01 13:25 56.66935 15.68308 37256 ft 458 kts 173°
2026-05-01 13:26 56.60627 15.69867 37253 ft 456 kts 173°
2026-05-01 13:26 56.54385 15.71404 37264 ft 455 kts 173°
2026-05-01 13:27 56.48075 15.72953 37272 ft 454 kts 173°
2026-05-01 13:27 56.38701 15.75243 37268 ft 453 kts 173°
2026-05-01 13:28 56.29373 15.77512 37279 ft 453 kts 172°
2026-05-01 13:29 56.16850 15.80540 37281 ft 455 kts 172°
2026-05-01 13:31 55.97968 15.85069 37292 ft 457 kts 172°
2026-05-01 13:32 55.82183 15.88821 37301 ft 458 kts 172°
2026-05-01 13:33 55.66408 15.92540 37307 ft 457 kts 172°
2026-05-01 13:34 55.54857 15.95244 37315 ft 457 kts 172°
2026-05-01 13:35 55.45385 15.97449 37324 ft 458 kts 172°
2026-05-01 13:36 55.35916 15.99643 37321 ft 458 kts 172°
2026-05-01 13:36 55.26431 16.01831 37323 ft 458 kts 172°
2026-05-01 13:37 55.20114 16.03282 37331 ft 458 kts 172°
2026-05-01 13:37 55.13790 16.04730 37338 ft 458 kts 172°
2026-05-01 13:38 55.04302 16.06893 37333 ft 458 kts 172°
2026-05-01 13:39 54.97939 16.07471 37343 ft 458 kts 179°
2026-05-01 13:39 54.91560 16.07469 37337 ft 458 kts 180°
2026-05-01 13:40 54.85187 16.07472 37337 ft 458 kts 179°
2026-05-01 13:40 54.78804 16.07548 37348 ft 458 kts 179°
2026-05-01 13:41 54.72433 16.07659 37346 ft 458 kts 179°
2026-05-01 13:41 54.66056 16.07779 37350 ft 458 kts 179°
2026-05-01 13:42 54.59688 16.07897 37355 ft 458 kts 179°
2026-05-01 13:42 54.53315 16.08013 37360 ft 458 kts 179°
2026-05-01 13:43 54.46985 16.08127 37368 ft 458 kts 179°
2026-05-01 13:43 54.40616 16.08241 37361 ft 458 kts 179°
2026-05-01 13:44 54.34243 16.08355 37367 ft 458 kts 179°
2026-05-01 13:44 54.27875 16.08468 37370 ft 458 kts 179°
2026-05-01 13:45 54.21494 16.08582 37371 ft 459 kts 179°
2026-05-01 13:45 54.15097 16.08695 37360 ft 460 kts 179°
2026-05-01 13:46 54.08691 16.08809 37374 ft 461 kts 179°
2026-05-01 13:46 54.02267 16.08922 37370 ft 463 kts 179°
2026-05-01 13:47 53.95826 16.09035 37367 ft 464 kts 179°
2026-05-01 13:47 53.89366 16.09148 37359 ft 466 kts 178°
2026-05-01 13:48 53.82880 16.09261 37363 ft 467 kts 178°
2026-05-01 13:48 53.76380 16.09374 37347 ft 467 kts 178°
2026-05-01 13:49 53.69875 16.09487 37349 ft 467 kts 178°
2026-05-01 13:49 53.63372 16.09599 37344 ft 467 kts 178°
2026-05-01 13:50 53.56879 16.09711 37347 ft 466 kts 178°
2026-05-01 13:50 53.50406 16.09822 37342 ft 465 kts 178°
2026-05-01 13:51 53.43943 16.09933 37333 ft 464 kts 178°
2026-05-01 13:51 53.37495 16.10043 37337 ft 463 kts 179°
2026-05-01 13:52 53.31065 16.10152 37326 ft 461 kts 179°
2026-05-01 13:52 53.24681 16.10260 37328 ft 461 kts 178°
2026-05-01 13:53 53.18258 16.10370 37336 ft 462 kts 178°
2026-05-01 13:53 53.08605 16.10532 37330 ft 463 kts 178°
2026-05-01 13:54 53.02164 16.10641 37328 ft 463 kts 178°
2026-05-01 13:54 52.95706 16.10749 37324 ft 464 kts 178°
2026-05-01 13:55 52.89246 16.10856 37331 ft 465 kts 179°
2026-05-01 13:55 52.82807 16.10963 37327 ft 465 kts 179°
2026-05-01 13:56 52.76331 16.11071 37329 ft 466 kts 179°
2026-05-01 13:56 52.69837 16.11178 37325 ft 466 kts 179°
2026-05-01 13:57 52.63350 16.11285 37331 ft 466 kts 178°
2026-05-01 13:57 52.56855 16.11392 37328 ft 466 kts 178°
2026-05-01 13:58 52.50366 16.11499 37327 ft 466 kts 178°
2026-05-01 13:58 52.43874 16.11605 37342 ft 466 kts 178°
2026-05-01 13:59 52.37415 16.11710 37329 ft 466 kts 178°
2026-05-01 13:59 52.30923 16.11816 37331 ft 466 kts 178°
2026-05-01 14:00 52.24435 16.11920 37333 ft 466 kts 178°
2026-05-01 14:00 52.17947 16.12026 37338 ft 466 kts 178°
2026-05-01 14:01 52.11451 16.12130 37331 ft 467 kts 178°
2026-05-01 14:01 52.04951 16.12235 37338 ft 467 kts 178°
2026-05-01 14:02 51.98453 16.12339 37334 ft 467 kts 178°
2026-05-01 14:02 51.91945 16.12443 37335 ft 468 kts 178°
2026-05-01 14:03 51.85444 16.12546 37339 ft 468 kts 178°
2026-05-01 14:03 51.78964 16.12649 37335 ft 468 kts 178°
2026-05-01 14:04 51.72450 16.12752 37334 ft 468 kts 178°
2026-05-01 14:04 51.66995 16.12839 37335 ft 468 kts 178°
2026-05-01 14:05 51.59433 16.13340 37342 ft 467 kts 172°
2026-05-01 14:05 51.52971 16.14573 37341 ft 467 kts 171°
2026-05-01 14:06 51.46504 16.15878 37336 ft 468 kts 171°
2026-05-01 14:06 51.40030 16.17112 37335 ft 468 kts 171°
2026-05-01 14:07 51.33552 16.18297 37335 ft 468 kts 172°
2026-05-01 14:08 51.23835 16.20049 37333 ft 469 kts 172°
2026-05-01 14:08 51.17357 16.21214 37335 ft 468 kts 172°
2026-05-01 14:09 51.10919 16.22371 37342 ft 468 kts 172°
2026-05-01 14:09 51.04441 16.23532 37337 ft 468 kts 172°
2026-05-01 14:10 50.97970 16.24689 37365 ft 468 kts 171°
2026-05-01 14:10 50.91482 16.25846 37346 ft 469 kts 171°
2026-05-01 14:11 50.84990 16.27000 37347 ft 469 kts 171°
2026-05-01 14:11 50.75247 16.28725 37337 ft 470 kts 171°
2026-05-01 14:12 50.68751 16.29871 37339 ft 470 kts 171°
2026-05-01 14:12 50.62289 16.31008 37335 ft 470 kts 171°
2026-05-01 14:13 50.56842 16.31964 37341 ft 470 kts 171°
2026-05-01 14:13 50.49293 16.33286 37346 ft 470 kts 171°
2026-05-01 14:14 50.42796 16.34420 37336 ft 470 kts 171°
2026-05-01 14:14 50.36294 16.35552 37340 ft 470 kts 171°
2026-05-01 14:15 50.29787 16.36681 37335 ft 470 kts 171°
2026-05-01 14:15 50.23289 16.37806 37335 ft 470 kts 171°
2026-05-01 14:16 50.16793 16.38928 37348 ft 470 kts 171°
2026-05-01 14:16 50.10288 16.40047 37343 ft 470 kts 171°
2026-05-01 14:17 50.03783 16.41164 37334 ft 471 kts 171°
2026-05-01 14:17 49.97261 16.42281 37336 ft 471 kts 171°
2026-05-01 14:18 49.90755 16.43392 37340 ft 471 kts 171°
2026-05-01 14:18 49.85338 16.44315 37346 ft 471 kts 171°
2026-05-01 14:19 49.77716 16.45610 37334 ft 472 kts 171°
2026-05-01 14:19 49.71235 16.46707 37347 ft 472 kts 171°
2026-05-01 14:20 49.61448 16.48359 37334 ft 473 kts 171°
2026-05-01 14:21 49.54897 16.49461 37340 ft 473 kts 171°
2026-05-01 14:21 49.49462 16.50373 37321 ft 473 kts 171°
2026-05-01 14:22 49.39648 16.52015 37328 ft 473 kts 170°
2026-05-01 14:22 49.33097 16.53108 37324 ft 474 kts 170°
2026-05-01 14:23 49.26540 16.54198 37328 ft 474 kts 170°
2026-05-01 14:23 49.19994 16.55283 37332 ft 473 kts 170°
2026-05-01 14:24 49.13440 16.56368 37319 ft 474 kts 170°
2026-05-01 14:24 49.06875 16.57451 37323 ft 475 kts 170°
2026-05-01 14:25 49.00307 16.58532 37326 ft 475 kts 170°
2026-05-01 14:25 48.93735 16.59610 37319 ft 475 kts 170°
2026-05-01 14:26 48.83874 16.61223 37326 ft 475 kts 170°
2026-05-01 14:27 48.77258 16.61704 37319 ft 480 kts 182°
2026-05-01 14:27 48.70681 16.59839 37332 ft 483 kts 190°
2026-05-01 14:28 48.60836 16.56572 37325 ft 483 kts 190°
2026-05-01 14:28 48.54272 16.54475 37339 ft 483 kts 189°
2026-05-01 14:29 48.47700 16.52419 37340 ft 483 kts 189°
2026-05-01 14:30 48.34536 16.48328 37344 ft 483 kts 189°
2026-05-01 14:31 48.24711 16.45282 37351 ft 483 kts 189°
2026-05-01 14:31 48.18086 16.43235 37348 ft 483 kts 189°
2026-05-01 14:32 48.11539 16.41218 37387 ft 484 kts 189°
2026-05-01 14:32 48.04930 16.39187 37357 ft 485 kts 189°
2026-05-01 14:33 47.98308 16.37157 37359 ft 486 kts 189°
2026-05-01 14:33 47.91678 16.35130 37357 ft 487 kts 189°
2026-05-01 14:34 47.85025 16.33101 37349 ft 488 kts 189°
2026-05-01 14:34 47.78368 16.31076 37347 ft 488 kts 189°
2026-05-01 14:35 47.71707 16.29056 37355 ft 489 kts 189°
2026-05-01 14:35 47.65040 16.27038 37356 ft 489 kts 189°
2026-05-01 14:36 47.58372 16.25026 37347 ft 488 kts 189°
2026-05-01 14:36 47.51715 16.23022 37347 ft 488 kts 189°
2026-05-01 14:37 47.45066 16.21026 37355 ft 488 kts 189°
2026-05-01 14:37 47.38415 16.19035 37341 ft 488 kts 189°
2026-05-01 14:38 47.31769 16.17049 37351 ft 486 kts 189°
2026-05-01 14:38 47.25140 16.15074 37354 ft 486 kts 189°
2026-05-01 14:39 47.18511 16.13104 37350 ft 486 kts 189°
2026-05-01 14:39 47.11903 16.11146 37343 ft 486 kts 189°
2026-05-01 14:40 47.05322 16.09199 37345 ft 486 kts 189°
2026-05-01 14:40 46.98694 16.07276 37342 ft 485 kts 188°
2026-05-01 14:41 46.92058 16.05515 37341 ft 485 kts 187°
2026-05-01 14:41 46.85401 16.03769 37352 ft 486 kts 187°
2026-05-01 14:42 46.78744 16.02001 37344 ft 486 kts 187°
2026-05-01 14:42 46.72083 16.00230 37340 ft 487 kts 187°
2026-05-01 14:43 46.65402 15.98864 37341 ft 483 kts 179°
2026-05-01 14:43 46.58682 15.98651 37342 ft 483 kts 177°
2026-05-01 14:44 46.51958 15.98485 37343 ft 483 kts 178°
2026-05-01 14:44 46.41861 15.98072 37336 ft 484 kts 178°
2026-05-01 14:45 46.31760 15.97632 37346 ft 484 kts 178°
2026-05-01 14:46 46.25020 15.97267 37344 ft 485 kts 179°
2026-05-01 14:46 46.14903 15.96588 37326 ft 486 kts 179°
2026-05-01 14:47 46.08155 15.96148 37332 ft 485 kts 179°
2026-05-01 14:48 45.98028 15.95506 37323 ft 486 kts 179°
2026-05-01 14:48 45.87898 15.94870 37336 ft 486 kts 179°
2026-05-01 14:49 45.74381 15.94022 37324 ft 486 kts 179°
2026-05-01 14:50 45.60904 15.93182 37325 ft 487 kts 179°
2026-05-01 14:51 45.50758 15.92551 37330 ft 486 kts 179°
2026-05-01 14:52 45.40610 15.91922 37326 ft 487 kts 179°
2026-05-01 14:53 45.30460 15.91296 37318 ft 487 kts 179°
2026-05-01 14:53 45.23697 15.90873 37328 ft 487 kts 180°
2026-05-01 14:54 45.16993 15.89200 37334 ft 491 kts 191°
2026-05-01 14:54 45.10351 15.86870 37321 ft 492 kts 191°
2026-05-01 14:55 45.03696 15.84554 37320 ft 492 kts 191°
2026-05-01 14:55 44.97034 15.82303 37313 ft 492 kts 191°
2026-05-01 14:56 44.90366 15.80084 37313 ft 492 kts 191°
2026-05-01 14:56 44.83691 15.77873 37320 ft 494 kts 190°
2026-05-01 14:57 44.76992 15.75656 37300 ft 495 kts 191°
2026-05-01 14:57 44.66953 15.72340 37303 ft 494 kts 190°
2026-05-01 14:58 44.60305 15.70150 37285 ft 494 kts 190°
2026-05-01 14:58 44.53620 15.67954 37292 ft 494 kts 190°
2026-05-01 14:59 44.46887 15.65747 37290 ft 493 kts 190°
2026-05-01 14:59 44.40251 15.63577 37281 ft 493 kts 190°
2026-05-01 15:00 44.30216 15.60305 37274 ft 494 kts 191°
2026-05-01 15:01 44.23529 15.58131 37257 ft 494 kts 191°
2026-05-01 15:01 44.16841 15.55961 37267 ft 493 kts 191°
2026-05-01 15:02 44.10164 15.53801 37259 ft 491 kts 191°
2026-05-01 15:02 44.03523 15.51656 37255 ft 489 kts 191°
2026-05-01 15:03 43.96904 15.49524 37255 ft 487 kts 191°
2026-05-01 15:03 43.90317 15.47407 37256 ft 485 kts 191°
2026-05-01 15:04 43.83763 15.45306 37248 ft 482 kts 191°
2026-05-01 15:04 43.77238 15.43219 37238 ft 480 kts 191°
2026-05-01 15:05 43.70735 15.41143 37237 ft 479 kts 191°
2026-05-01 15:05 43.64253 15.39078 37238 ft 478 kts 191°
2026-05-01 15:06 43.57778 15.37021 37241 ft 478 kts 191°
2026-05-01 15:06 43.51291 15.34964 37256 ft 479 kts 191°
2026-05-01 15:07 43.44778 15.32904 37253 ft 481 kts 191°
2026-05-01 15:07 43.38245 15.30841 37265 ft 483 kts 192°
2026-05-01 15:08 43.31683 15.28774 37246 ft 485 kts 192°
2026-05-01 15:08 43.25133 15.26715 37243 ft 487 kts 192°
2026-05-01 15:09 43.18514 15.24639 37264 ft 489 kts 192°
2026-05-01 15:09 43.11874 15.22560 37258 ft 490 kts 192°
2026-05-01 15:10 43.05225 15.20468 37253 ft 491 kts 194°
2026-05-01 15:10 42.96512 15.17017 37261 ft 489 kts 198°
2026-05-01 15:11 42.86792 15.12918 37252 ft 486 kts 198°
2026-05-01 15:12 42.80336 15.10257 37258 ft 483 kts 197°
2026-05-01 15:12 42.70711 15.06341 37263 ft 480 kts 197°
2026-05-01 15:14 42.54798 14.99896 37255 ft 476 kts 198°
2026-05-01 15:14 42.45297 14.96062 37268 ft 475 kts 197°
2026-05-01 15:15 42.32632 14.90969 37258 ft 475 kts 198°
2026-05-01 15:16 42.19927 14.85882 37270 ft 478 kts 198°
2026-05-01 15:18 42.03933 14.79509 37272 ft 481 kts 198°
2026-05-01 15:19 41.91093 14.74417 37266 ft 483 kts 198°
2026-05-01 15:19 41.81415 14.70593 37256 ft 483 kts 198°
2026-05-01 15:20 41.71762 14.66791 37251 ft 481 kts 198°
2026-05-01 15:21 41.65351 14.64273 37245 ft 479 kts 199°
2026-05-01 15:21 41.58964 14.61769 37231 ft 478 kts 199°
2026-05-01 15:22 41.49424 14.58039 37235 ft 474 kts 199°
2026-05-01 15:22 41.43100 14.55572 37227 ft 473 kts 199°
2026-05-01 15:23 41.36783 14.53114 37231 ft 473 kts 199°
2026-05-01 15:23 41.30455 14.50655 37231 ft 476 kts 200°
2026-05-01 15:24 41.24070 14.48176 37220 ft 480 kts 199°
2026-05-01 15:24 41.17643 14.45689 37209 ft 482 kts 199°
2026-05-01 15:25 41.11250 14.43225 37180 ft 474 kts 199°
2026-05-01 15:25 41.04950 14.40800 37187 ft 470 kts 199°
2026-05-01 15:26 40.98740 14.38411 37186 ft 467 kts 199°
2026-05-01 15:26 40.92509 14.36019 37183 ft 465 kts 199°
2026-05-01 15:27 40.86295 14.33637 37174 ft 464 kts 200°
2026-05-01 15:28 40.76997 14.30085 37175 ft 463 kts 200°
2026-05-01 15:28 40.70810 14.27726 37179 ft 462 kts 200°
2026-05-01 15:29 40.61551 14.24206 37173 ft 461 kts 201°
2026-05-01 15:30 40.49237 14.19538 37177 ft 460 kts 201°
2026-05-01 15:31 40.30818 14.12590 37170 ft 460 kts 201°
2026-05-01 15:32 40.18504 14.07968 37167 ft 460 kts 202°
2026-05-01 15:34 40.00016 14.01058 36684 ft 459 kts 203°